Regional Weather Roundup
Issued by NWS

Home | Current Version | Previous Version | Graphics & Text | Print | Product List | Glossary Off
Versions: 1 2 3 4 5 6 7 8 9 10 11 12 13 14 15 16 17 18 19 20 21 22 23 24 25 26 27 28 29 30 31 32 33 34 35 36 37 38 39 40 41 42 43 44 45 46 47 48 49 50

000
ASUS43 KMKX 192021
RWRWI

WISCONSIN REGIONAL WEATHER ROUNDUP
NATIONAL WEATHER SERVICE MILWAUKEE/SULLIVAN WI
300 PM CDT TUE AUG 19 2014

NOTE: "FAIR" INDICATES FEW OR NO CLOUDS BELOW 12,000 FEET WITH NO
SIGNIFICANT WEATHER AND/OR OBSTRUCTIONS TO VISIBILITY.

WIZ001-002-006>008-014>016-023>028-192100-
NORTHWEST WISCONSIN

CITY           SKY/WX    TMP DP  RH WIND       PRES   REMARKS
SUPERIOR ARPT  LGT RAIN  70  65  83 CALM      29.72S
ASHLAND        CLOUDY    70  62  76 N6        29.73S
HAYWARD        CLOUDY    69  62  78 N5        29.74S
SIREN          PTSUNNY   75  60  59 NW8       29.73S
RICE LAKE      PTSUNNY   70  63  79 W6        29.75S
LADYSMITH      CLOUDY    72  62  72 W8        29.74F
EAU CLAIRE     PTSUNNY   76  63  64 NW7       29.72F
MENOMONIE      CLOUDY    76  62  62 W9        29.73F
NEW RICHMOND   CLOUDY    74  61  63 W7        29.75F
OSCEOLA        PTSUNNY   76  65  68 W9        29.76S
$$

WIZ003>005-009-010-017-018-192100-
NORTH CENTRAL WISCONSIN

CITY           SKY/WX    TMP DP  RH WIND       PRES   REMARKS
WOODRUFF       CLOUDY    71  63  76 NW10      29.72S
RHINELANDER    MOSUNNY   72  60  66 NW10      29.71R
EAGLE RIVER    CLOUDY    69  58  68 NW9G16    29.71R
LAND O LAKES   CLOUDY    66  60  80 NW9       29.73R
PHILLIPS       CLOUDY    68  62  82 NW6       29.72S
TOMAHAWK       CLOUDY    68  62  81 N6        29.71R
MEDFORD        LGT RAIN  69  63  82 W9        29.72S
MERRILL        PTSUNNY   71  66  85 W7        29.70F
$$

WIZ029-030-035-036-043>047-192100-
CENTRAL WISCONSIN

CITY           SKY/WX    TMP DP  RH WIND       PRES   REMARKS
WAUSAU         MOSUNNY   74  62  66 W12       29.69S
MOSINEE        PTSUNNY   75  63  64 W9        29.72S
MARSHFIELD     PTSUNNY   73  62  68 W10       29.72S
STEVENS POINT  PTSUNNY   73  62  68 W12G18    29.70S
WAUPACA        CLOUDY    75  65  70 W9        29.68F
WAUTOMA        PTSUNNY   77  63  61 W14G21    29.70S
WISC RAPIDS    PTSUNNY   75  61  61 W13       29.72S
CAMP DOUGLAS   PTSUNNY   75  66  73 W15       29.72S
$$

WIZ011>013-019>022-031-037>040-048>050-192100-
NORTHEAST WISCONSIN

CITY           SKY/WX    TMP DP  RH WIND       PRES   REMARKS
ANTIGO         PTSUNNY   72  63  73 NW10      29.70S
STURGEON BAY   PTSUNNY   73  63  68 SW5       29.67S
GREEN BAY      MOSUNNY   77  67  71 W7        29.66F
MANITOWOC      CLOUDY    73  65  75 W9        29.68S
APPLETON       PTSUNNY   75  64  69 W12G18    29.69
CLINTONVILLE   RAIN      70  64  83 NW8       29.67R
OSHKOSH        PTSUNNY   76  65  68 W8        29.68F
$$

WIZ032>034-041-042-053>061-192100-
SOUTHWEST WISCONSIN

CITY           SKY/WX    TMP DP  RH WIND       PRES   REMARKS
LA CROSSE      MOSUNNY   81  62  52 NW12      29.72F HX  82
SPARTA         CLOUDY    76  61  58 W9        29.74S
VIROQUA        MOCLDY    78  62  58 NW14      29.76R
BOSCOBEL       PTSUNNY   80  63  55 NW6       29.73F HX  81
PRAIRIE DU CHI MOSUNNY   82  59  45 W10       29.73S HX  82
PLATTEVILLE    FAIR      80  66  62 W16G23    29.76R HX  82
$$

WIZ056-057-062-063-064-067-068-192100-
SOUTH CENTRAL WISCONSIN

CITY           SKY/WX    TMP DP  RH WIND       PRES   REMARKS
BARABOO/DELLS  MOSUNNY   80  59  49 W12G21    29.71F HX  81
LONE ROCK      MOSUNNY   85  63  47 NW12      29.72S HX  86
WATERTOWN      MOSUNNY   80  67  65 W12       29.69S HX  82
MADISON        MOSUNNY   81  65  58 W6        29.70S HX  83
MIDDLETON      FAIR      80  63  56 W9G20     29.72R HX  81
MONROE         PTSUNNY   81  64  57 W14       29.73S HX  82
JANESVILLE     MOSUNNY   86  61  42 W14G20    29.70S HX  86
$$

WIZ051-052-058>065-066-070>072-192100-
SOUTHEAST WISCONSIN

CITY           SKY/WX    TMP DP  RH WIND       PRES   REMARKS
MILWAUKEE      PTSUNNY   80  65  59 W9        29.68R HX  82
WAUKESHA       MOSUNNY   77  64  65 W9        29.70S
MILWAUKEE/TIMM MOSUNNY   82  63  51 W14G20    29.68S HX  83
RACINE         PTSUNNY   81  67  62 W9G24     29.69S HX  83
BURLINGTON     PTSUNNY   80  68  65 SW13      29.69F HX  83
KENOSHA        PTSUNNY   81  66  60 W15G26    29.69S HX  83
FOND DU LAC    CLOUDY    77  65  66 W13       29.70S
SHEBOYGAN      MOSUNNY   75  64  68 W10       29.69S
WEST BEND      PTSUNNY   77  63  61 W14       29.69S
JUNEAU         MOSUNNY   76  40  26 W9        29.72R
$$

LSZ147-162-192100-
LAKE SUPERIOR

STATION/POSITION TIME  TEMP    WIND        PRES    WAVE
                       AIR SEA DIR/SP/G            HT/PER
                 (UTC) (F)     (DEG/KT/KT) (MB)    (FT/S)
W MID LAKE BUOY  1950   56 56   20/ 12/ 14 1006.5R   2/ 4
PORT WING        1900   65     360/  3/  3 1006.8S
SAXON HARBOR     1900   62      50/  2/  4 1007.1
$$

LMZ867-665-643>646-192100-
LAKE MICHIGAN

STATION/POSITION TIME  TEMP    WIND        PRES    WAVE
                       AIR SEA DIR/SP/G            HT/PER
                 (UTC) (F)     (DEG/KT/KT) (MB)    (FT/S)
N MID LAKE BUOY  1950   62 62  200/ 10/ 12 1004.0F   2/ 4
NORTHPORT PIER   1900   66     130/  5/  6 1004.4F
SISTER BAY       1741   76     290/  7/  7   N/A
KEWAUNEE LAKESHO 2000   75     260/  6/ 10 1003.8F
SHEBOYGAN LAKESH 2000   74 67  300/ 14/ 16 1005.2R
ATWATER BUOY     2000   77     320/  8     1006.1R
MILWAUKEE LAKESH 2000   81     300/  9/ 12   N/A
S MID LAKE BUOY  1950   70 67  220/ 12/ 14 1005.0F   2/ 4
KENOSHA   LAKESH 2000   81     210/ 11/ 15 1004.7S
$$

TC  - TEMPERATURE IN CELSIUS
VSB - VISIBILITY IN STATUTE MILES
WCI - WIND CHILL INDEX
HX  - HEAT INDEX




USA.gov is the U.S. government's official web portal to all federal, state and local government web resources and services.